| time (UTC) | temp F | wind direction | speed knots | gust knots | rain 1hr in | rain 24hr in | rain mn in | humidity % | barometer mb |
| 20260505152220 | 73 | 185 | 0.0 | 0.0 | 0.00 | 0.00 | 0.00 | 59 | 1019.0 |
| 20260505151714 | 72 | 220 | 0.0 | 0.0 | 0.00 | 0.00 | 0.00 | 60 | 1019.1 |
| 20260505151212 | 71 | 184 | 0.0 | 0.9 | 0.00 | 0.00 | 0.00 | 60 | 1018.8 |
| 20260505150708 | 71 | 162 | 0.0 | 0.9 | 0.00 | 0.00 | 0.00 | 60 | 1018.8 |
| 20260505150206 | 71 | 184 | 0.9 | 0.9 | 0.00 | 0.00 | 0.00 | 60 | 1018.9 |
| 20260505140639 | 67 | 232 | 0.9 | 0.9 | 0.00 | 0.00 | 0.00 | 69 | 1018.9 |
| 20260505140136 | 67 | 246 | 0.0 | 0.9 | 0.00 | 0.00 | 0.00 | 68 | 1018.8 |
| 20260505124549 | 61 | 197 | 0.0 | 0.0 | 0.00 | 0.00 | 0.00 | 77 | 1019.1 |
| 20260505124045 | 60 | 179 | 0.9 | 0.9 | 0.00 | 0.00 | 0.00 | 78 | 1019.0 |
| 20260505123542 | 60 | 193 | 0.0 | 0.0 | 0.00 | 0.00 | 0.00 | 78 | 1019.3 |
| 20260505123038 | 60 | 180 | 0.9 | 0.9 | 0.00 | 0.00 | 0.00 | 78 | 1018.9 |
| 20260505122535 | 59 | 163 | 0.9 | 0.9 | 0.00 | 0.00 | 0.00 | 79 | 1018.8 |
| 20260505122032 | 59 | 188 | 0.0 | 0.0 | 0.00 | 0.00 | 0.00 | 79 | 1019.0 |
| 20260505121529 | 59 | 194 | 0.0 | 0.0 | 0.00 | 0.00 | 0.00 | 79 | 1019.0 |
| 20260505121025 | 59 | 187 | 0.0 | 0.0 | 0.00 | 0.00 | 0.00 | 80 | 1018.8 |
| 20260505120522 | 58 | 187 | 0.0 | 0.0 | 0.00 | 0.00 | 0.00 | 79 | 1018.8 |
| 20260505120017 | 58 | 205 | 0.0 | 0.9 | 0.00 | 0.00 | 0.00 | 80 | 1018.9 |
| 20260505115512 | 58 | 179 | 0.0 | 0.9 | 0.00 | 0.00 | 0.00 | 80 | 1018.7 |
| 20260505115010 | 58 | 185 | 0.0 | 0.0 | 0.00 | 0.00 | 0.00 | 80 | 1018.8 |
| 20260505114507 | 57 | 226 | 0.0 | 0.0 | 0.00 | 0.00 | 0.00 | 80 | 1018.6 |
| 20260505114003 | 57 | 227 | 0.0 | 0.9 | 0.00 | 0.00 | 0.00 | 80 | 1018.6 |
| 20260505113500 | 57 | 227 | 0.0 | 0.9 | 0.00 | 0.00 | 0.00 | 81 | 1018.9 |
| 20260505112955 | 57 | 227 | 0.0 | 0.9 | 0.00 | 0.00 | 0.00 | 81 | 1018.7 |
| 20260505112453 | 57 | 227 | 0.0 | 0.0 | 0.00 | 0.00 | 0.00 | 81 | 1018.6 |
| 20260505111950 | 56 | 173 | 0.0 | 0.0 | 0.00 | 0.00 | 0.00 | 82 | 1018.5 |
| 20260505111444 | 56 | 173 | 0.0 | 0.0 | 0.00 | 0.00 | 0.00 | 82 | 1018.4 |
| 20260505110941 | 56 | 173 | 0.0 | 0.9 | 0.00 | 0.00 | 0.00 | 82 | 1018.4 |
| 20260505110438 | 55 | 173 | 0.0 | 0.9 | 0.00 | 0.00 | 0.00 | 82 | 1018.5 |
| 20260505101908 | 55 | 171 | 0.9 | 0.9 | 0.00 | 0.00 | 0.00 | 82 | 1017.9 |
| 20260505101403 | 55 | 171 | 0.0 | 0.0 | 0.00 | 0.00 | 0.00 | 82 | 1018.0 |
| 20260505100859 | 55 | 171 | 0.0 | 0.0 | 0.00 | 0.00 | 0.00 | 82 | 1017.9 |
| 20260505100356 | 55 | 171 | 0.0 | 0.0 | 0.00 | 0.00 | 0.00 | 81 | 1017.9 |
| 20260505095851 | 56 | 171 | 0.0 | 0.0 | 0.00 | 0.00 | 0.00 | 80 | 1017.9 |
| 20260505095349 | 56 | 171 | 0.0 | 0.0 | 0.00 | 0.00 | 0.00 | 80 | 1017.8 |
| 20260505094845 | 56 | 171 | 0.0 | 0.0 | 0.00 | 0.00 | 0.00 | 80 | 1017.7 |
| 20260505094342 | 56 | 171 | 0.0 | 0.9 | 0.00 | 0.00 | 0.00 | 79 | 1017.7 |
| 20260505093838 | 56 | 171 | 0.0 | 0.9 | 0.00 | 0.00 | 0.00 | 79 | 1017.5 |
| 20260505093335 | 56 | 171 | 0.0 | 0.9 | 0.00 | 0.00 | 0.00 | 79 | 1017.5 |
| 20260505092832 | 56 | 171 | 0.0 | 0.9 | 0.00 | 0.00 | 0.00 | 79 | 1017.7 |
| 20260505092331 | 56 | 171 | 0.0 | 0.0 | 0.00 | 0.00 | 0.00 | 79 | 1017.4 |
| 20260505091827 | 56 | 171 | 0.0 | 0.9 | 0.00 | 0.00 | 0.00 | 79 | 1017.3 |
| 20260505091325 | 56 | 171 | 0.0 | 0.0 | 0.00 | 0.00 | 0.00 | 78 | 1017.3 |
| 20260505090824 | 56 | 171 | 0.9 | 0.9 | 0.00 | 0.00 | 0.00 | 79 | 1017.3 |
| 20260505090321 | 57 | 171 | 0.9 | 0.9 | 0.00 | 0.00 | 0.00 | 78 | 1017.5 |
| 20260505085818 | 57 | 171 | 0.0 | 0.0 | 0.00 | 0.00 | 0.00 | 78 | 1017.4 |
| 20260505085316 | 57 | 171 | 0.0 | 0.0 | 0.00 | 0.00 | 0.00 | 77 | 1017.4 |
| 20260505084813 | 57 | 171 | 0.0 | 0.9 | 0.00 | 0.00 | 0.00 | 77 | 1017.5 |
| 20260505084312 | 57 | 171 | 0.0 | 0.9 | 0.00 | 0.00 | 0.00 | 76 | 1017.4 |
| 20260505083808 | 57 | 171 | 0.0 | 0.0 | 0.00 | 0.00 | 0.00 | 76 | 1017.4 |
| 20260505083306 | 58 | 171 | 0.0 | 0.0 | 0.00 | 0.00 | 0.00 | 75 | 1017.5 |
| 20260505082802 | 58 | 171 | 0.0 | 0.0 | 0.00 | 0.00 | 0.00 | 74 | 1017.3 |
| 20260505082259 | 58 | 172 | 0.0 | 0.0 | 0.00 | 0.00 | 0.00 | 74 | 1017.3 |
| 20260505081755 | 58 | 172 | 0.0 | 0.0 | 0.00 | 0.00 | 0.00 | 74 | 1017.4 |
| 20260505081252 | 58 | 172 | 0.0 | 0.0 | 0.00 | 0.00 | 0.00 | 74 | 1017.3 |
| 20260505080749 | 59 | 172 | 0.0 | 0.0 | 0.00 | 0.00 | 0.00 | 73 | 1017.3 |
| 20260505080244 | 59 | 172 | 0.0 | 0.0 | 0.00 | 0.00 | 0.00 | 72 | 1017.2 |
| 20260505075740 | 59 | 172 | 0.0 | 0.0 | 0.00 | 0.00 | 0.00 | 72 | 1017.2 |
| 20260505075238 | 59 | 172 | 0.0 | 0.0 | 0.00 | 0.00 | 0.00 | 71 | 1017.2 |
| 20260505074735 | 59 | 172 | 0.0 | 0.0 | 0.00 | 0.00 | 0.00 | 71 | 1017.1 |
| 20260505074232 | 59 | 171 | 0.0 | 0.9 | 0.00 | 0.00 | 0.00 | 71 | 1017.1 |
| 20260505073729 | 59 | 172 | 0.0 | 0.0 | 0.00 | 0.00 | 0.00 | 71 | 1017.0 |
| 20260505073227 | 60 | 172 | 0.0 | 0.0 | 0.00 | 0.00 | 0.00 | 70 | 1017.1 |
| 20260505072723 | 60 | 169 | 0.0 | 0.0 | 0.00 | 0.00 | 0.00 | 70 | 1017.1 |
| 20260505072219 | 60 | 169 | 0.0 | 0.0 | 0.00 | 0.00 | 0.00 | 70 | 1016.9 |
| 20260505071715 | 60 | 169 | 0.0 | 0.0 | 0.00 | 0.00 | 0.00 | 70 | 1016.9 |
| 20260505071213 | 60 | 169 | 0.0 | 0.9 | 0.00 | 0.00 | 0.00 | 70 | 1016.9 |
| 20260505070710 | 60 | 169 | 0.0 | 0.9 | 0.00 | 0.00 | 0.00 | 70 | 1017.0 |
| 20260505070206 | 60 | 168 | 0.0 | 0.9 | 0.00 | 0.00 | 0.00 | 70 | 1017.0 |
| 20260505065702 | 60 | 169 | 0.0 | 0.0 | 0.00 | 0.00 | 0.00 | 70 | 1016.9 |
| 20260505065159 | 60 | 169 | 0.9 | 0.9 | 0.00 | 0.00 | 0.00 | 70 | 1017.0 |
| 20260505064656 | 60 | 169 | 0.0 | 0.0 | 0.00 | 0.00 | 0.00 | 70 | 1017.1 |
| 20260505064154 | 61 | 169 | 0.0 | 0.0 | 0.00 | 0.00 | 0.00 | 69 | 1017.0 |
| 20260505063651 | 61 | 169 | 0.0 | 0.0 | 0.00 | 0.00 | 0.00 | 70 | 1017.0 |
| 20260505063147 | 61 | 167 | 0.0 | 0.9 | 0.00 | 0.00 | 0.00 | 70 | 1016.9 |
| 20260505062643 | 61 | 167 | 0.9 | 0.9 | 0.00 | 0.00 | 0.00 | 69 | 1017.0 |
| 20260505062141 | 61 | 171 | 0.0 | 0.9 | 0.00 | 0.00 | 0.00 | 69 | 1016.9 |
| 20260505061638 | 61 | 167 | 0.0 | 0.9 | 0.00 | 0.00 | 0.00 | 69 | 1017.0 |
| 20260505061136 | 61 | 170 | 0.9 | 0.9 | 0.00 | 0.00 | 0.00 | 69 | 1016.7 |
| 20260505060633 | 61 | 152 | 0.0 | 0.0 | 0.00 | 0.00 | 0.00 | 69 | 1016.9 |
| 20260505060130 | 62 | 174 | 0.9 | 0.9 | 0.00 | 0.00 | 0.00 | 68 | 1017.0 |
| 20260505055625 | 62 | 172 | 0.0 | 0.0 | 0.00 | 0.00 | 0.00 | 68 | 1017.1 |
| 20260505055122 | 62 | 175 | 0.0 | 0.9 | 0.00 | 0.00 | 0.00 | 68 | 1017.2 |
| 20260505054619 | 62 | 173 | 0.9 | 0.9 | 0.00 | 0.00 | 0.00 | 68 | 1017.1 |
| 20260505054118 | 62 | 172 | 0.9 | 0.9 | 0.00 | 0.00 | 0.00 | 68 | 1016.9 |
| 20260505053614 | 62 | 172 | 0.0 | 0.9 | 0.00 | 0.00 | 0.00 | 68 | 1017.0 |
| 20260505053111 | 62 | 172 | 0.9 | 0.9 | 0.00 | 0.00 | 0.00 | 68 | 1017.3 |
| 20260505052608 | 62 | 177 | 0.0 | 0.0 | 0.00 | 0.00 | 0.00 | 68 | 1017.2 |
| 20260505052106 | 62 | 173 | 0.0 | 0.9 | 0.00 | 0.00 | 0.00 | 68 | 1017.1 |
| 20260505051602 | 62 | 171 | 0.9 | 0.9 | 0.00 | 0.00 | 0.00 | 68 | 1017.3 |
| 20260505051100 | 62 | 169 | 0.9 | 0.9 | 0.00 | 0.00 | 0.00 | 68 | 1017.4 |
| 20260505050558 | 62 | 176 | 0.9 | 0.9 | 0.00 | 0.00 | 0.00 | 68 | 1017.4 |
| 20260505041526 | 64 | 167 | 0.9 | 0.9 | 0.00 | 0.00 | 0.00 | 66 | 1017.1 |
| 20260505041023 | 64 | 171 | 0.9 | 0.9 | 0.00 | 0.00 | 0.00 | 66 | 1017.2 |
| 20260505040520 | 64 | 177 | 0.0 | 0.0 | 0.00 | 0.00 | 0.00 | 66 | 1017.2 |
| 20260505040018 | 64 | 171 | 0.9 | 0.9 | 0.00 | 0.00 | 0.00 | 65 | 1017.2 |
| 20260505035513 | 64 | 172 | 0.0 | 0.9 | 0.00 | 0.00 | 0.00 | 65 | 1017.2 |
| 20260505035011 | 64 | 151 | 0.9 | 0.9 | 0.00 | 0.00 | 0.00 | 65 | 1017.0 |
| 20260505034507 | 64 | 170 | 0.9 | 0.9 | 0.00 | 0.00 | 0.00 | 65 | 1017.1 |
| 20260505034004 | 64 | 172 | 0.9 | 0.9 | 0.00 | 0.00 | 0.00 | 65 | 1017.2 |
| 20260505033500 | 65 | 167 | 0.9 | 0.9 | 0.00 | 0.00 | 0.00 | 65 | 1017.0 |
| 20260505032959 | 65 | 177 | 0.0 | 0.9 | 0.00 | 0.00 | 0.00 | 64 | 1017.0 |
| 20260505032456 | 65 | 164 | 0.9 | 0.9 | 0.00 | 0.00 | 0.00 | 64 | 1017.1 |
| 20260505031952 | 65 | 172 | 0.9 | 1.7 | 0.00 | 0.00 | 0.00 | 65 | 1017.2 |
| 20260505031449 | 65 | 165 | 0.0 | 0.9 | 0.00 | 0.00 | 0.00 | 65 | 1017.2 |
| 20260505030946 | 65 | 164 | 0.9 | 0.9 | 0.00 | 0.00 | 0.00 | 64 | 1017.2 |
| 20260505030442 | 66 | 171 | 0.9 | 0.9 | 0.00 | 0.00 | 0.00 | 64 | 1017.1 |
| 20260505025937 | 66 | 167 | 0.9 | 0.9 | 0.00 | 0.00 | 0.00 | 63 | 1017.0 |
| 20260505025435 | 66 | 161 | 0.9 | 1.7 | 0.00 | 0.00 | 0.00 | 63 | 1017.2 |
| 20260505024934 | 66 | 172 | 0.9 | 0.9 | 0.00 | 0.00 | 0.00 | 63 | 1017.1 |
| 20260505024431 | 66 | 167 | 1.7 | 1.7 | 0.00 | 0.00 | 0.00 | 63 | 1017.2 |
| 20260505023928 | 66 | 171 | 0.9 | 0.9 | 0.00 | 0.00 | 0.00 | 62 | 1017.0 |
| 20260505023425 | 67 | 179 | 0.9 | 0.9 | 0.00 | 0.00 | 0.00 | 62 | 1016.8 |
| 20260505022922 | 67 | 175 | 0.9 | 0.9 | 0.00 | 0.00 | 0.00 | 61 | 1017.0 |
| 20260505022420 | 67 | 176 | 0.9 | 1.7 | 0.00 | 0.00 | 0.00 | 61 | 1016.9 |
| 20260505021916 | 67 | 174 | 0.9 | 0.9 | 0.00 | 0.00 | 0.00 | 60 | 1017.0 |
| 20260505021413 | 68 | 161 | 0.9 | 1.7 | 0.00 | 0.00 | 0.00 | 60 | 1016.8 |
| 20260505020908 | 68 | 169 | 0.0 | 0.9 | 0.00 | 0.00 | 0.00 | 58 | 1016.9 |
| 20260505020404 | 68 | 184 | 0.9 | 0.9 | 0.00 | 0.00 | 0.00 | 57 | 1016.9 |
| 20260505015901 | 68 | 172 | 0.9 | 1.7 | 0.00 | 0.00 | 0.00 | 55 | 1016.9 |
| 20260505015358 | 68 | 172 | 0.9 | 0.9 | 0.00 | 0.00 | 0.00 | 53 | 1016.9 |
| 20260505014856 | 69 | 171 | 0.9 | 0.9 | 0.00 | 0.00 | 0.00 | 49 | 1016.7 |
| 20260505014352 | 69 | 164 | 0.9 | 0.9 | 0.00 | 0.00 | 0.00 | 47 | 1016.7 |
| 20260505013849 | 69 | 165 | 0.9 | 0.9 | 0.00 | 0.00 | 0.00 | 47 | 1016.7 |
| 20260505013346 | 70 | 169 | 0.9 | 0.9 | 0.00 | 0.00 | 0.00 | 47 | 1016.5 |
| 20260505012845 | 70 | 175 | 0.9 | 0.9 | 0.00 | 0.00 | 0.00 | 45 | 1016.5 |
| 20260505012343 | 70 | 171 | 0.9 | 0.9 | 0.00 | 0.00 | 0.00 | 45 | 1016.4 |
| 20260505011838 | 70 | 169 | 0.9 | 0.9 | 0.00 | 0.00 | 0.00 | 45 | 1016.2 |
| 20260505011335 | 70 | 170 | 0.9 | 0.9 | 0.00 | 0.00 | 0.00 | 45 | 1016.0 |
| 20260505010831 | 70 | 171 | 0.0 | 0.0 | 0.00 | 0.00 | 0.00 | 44 | 1016.0 |
| 20260505010327 | 70 | 171 | 0.0 | 0.9 | 0.00 | 0.00 | 0.00 | 44 | 1016.1 |
| 20260505005823 | 70 | 171 | 0.9 | 0.9 | 0.00 | 0.00 | 0.00 | 44 | 1015.8 |
| 20260505005321 | 71 | 171 | 0.0 | 0.9 | 0.00 | 0.00 | 0.00 | 43 | 1015.8 |
| 20260505004818 | 71 | 169 | 0.0 | 0.0 | 0.00 | 0.00 | 0.00 | 43 | 1015.7 |
| 20260505004314 | 71 | 167 | 0.0 | 0.9 | 0.00 | 0.00 | 0.00 | 42 | 1015.8 |
| 20260505003812 | 71 | 171 | 0.0 | 0.0 | 0.00 | 0.00 | 0.00 | 43 | 1015.9 |
| 20260505003309 | 71 | 167 | 0.9 | 0.9 | 0.00 | 0.00 | 0.00 | 42 | 1015.6 |
| 20260505002805 | 71 | 167 | 0.9 | 0.9 | 0.00 | 0.00 | 0.00 | 43 | 1015.6 |
| 20260505002304 | 71 | 167 | 0.9 | 0.9 | 0.00 | 0.00 | 0.00 | 43 | 1015.5 |
| 20260505001800 | 72 | 164 | 0.0 | 0.0 | 0.00 | 0.00 | 0.00 | 43 | 1015.4 |
| 20260505001257 | 72 | 164 | 0.0 | 0.9 | 0.00 | 0.00 | 0.00 | 42 | 1015.7 |
| 20260505000754 | 72 | 164 | 0.9 | 0.9 | 0.00 | 0.00 | 0.00 | 43 | 1015.7 |
| 20260505000252 | 73 | 163 | 0.0 | 0.0 | 0.00 | 0.00 | 0.00 | 42 | 1015.4 |
| 20260504235748 | 73 | 163 | 0.9 | 0.9 | 0.00 | 0.00 | 0.00 | 42 | 1015.5 |
| 20260504235244 | 73 | 163 | 0.0 | 0.9 | 0.00 | 0.00 | 0.00 | 41 | 1015.4 |
| 20260504234742 | 74 | 167 | 0.0 | 0.0 | 0.00 | 0.00 | 0.00 | 40 | 1015.2 |
| 20260504234239 | 74 | 167 | 0.9 | 0.9 | 0.00 | 0.00 | 0.00 | 39 | 1015.2 |
| 20260504233735 | 74 | 183 | 0.9 | 0.9 | 0.00 | 0.00 | 0.00 | 39 | 1015.2 |
| 20260504233231 | 74 | 170 | 0.0 | 0.0 | 0.00 | 0.00 | 0.00 | 39 | 1015.0 |
| 20260504232728 | 74 | 167 | 0.0 | 0.9 | 0.00 | 0.00 | 0.00 | 39 | 1014.9 |
| 20260504232225 | 75 | 165 | 0.0 | 0.9 | 0.00 | 0.00 | 0.00 | 39 | 1015.0 |
| 20260504231722 | 75 | 167 | 0.9 | 0.9 | 0.00 | 0.00 | 0.00 | 38 | 1015.0 |
| 20260504231218 | 75 | 167 | 0.0 | 0.9 | 0.00 | 0.00 | 0.00 | 37 | 1015.0 |
| 20260504230714 | 75 | 169 | 0.0 | 0.9 | 0.00 | 0.00 | 0.00 | 37 | 1015.0 |
| 20260504230214 | 76 | 169 | 0.0 | 0.9 | 0.00 | 0.00 | 0.00 | 37 | 1014.9 |
| 20260504225712 | 76 | 171 | 0.9 | 0.9 | 0.00 | 0.00 | 0.00 | 34 | 1014.7 |
| 20260504225207 | 76 | 175 | 0.9 | 0.9 | 0.00 | 0.00 | 0.00 | 35 | 1015.0 |
| 20260504224705 | 77 | 201 | 0.0 | 0.0 | 0.00 | 0.00 | 0.00 | 36 | 1015.0 |
| 20260504224202 | 77 | 193 | 0.9 | 0.9 | 0.00 | 0.00 | 0.00 | 33 | 1014.7 |
| 20260504223658 | 77 | 182 | 0.0 | 0.9 | 0.00 | 0.00 | 0.00 | 33 | 1014.8 |
| 20260504223154 | 77 | 219 | 0.0 | 0.0 | 0.00 | 0.00 | 0.00 | 34 | 1015.2 |
| 20260504222651 | 77 | 193 | 0.0 | 0.0 | 0.00 | 0.00 | 0.00 | 33 | 1014.8 |
| 20260504222148 | 77 | 167 | 0.0 | 0.0 | 0.00 | 0.00 | 0.00 | 33 | 1014.9 |
| 20260504221645 | 77 | 193 | 0.0 | 0.0 | 0.00 | 0.00 | 0.00 | 33 | 1015.0 |
| 20260504221142 | 77 | 201 | 0.0 | 0.9 | 0.00 | 0.00 | 0.00 | 32 | 1014.9 |
| 20260504220638 | 77 | 165 | 0.0 | 0.0 | 0.00 | 0.00 | 0.00 | 33 | 1014.9 |
| 20260504220136 | 77 | 152 | 0.0 | 0.9 | 0.00 | 0.00 | 0.00 | 33 | 1014.9 |
| 20260504215632 | 77 | 171 | 0.9 | 0.9 | 0.00 | 0.00 | 0.00 | 34 | 1014.9 |
| 20260504215130 | 77 | 180 | 0.0 | 0.9 | 0.00 | 0.00 | 0.00 | 32 | 1014.7 |
| 20260504214626 | 77 | 203 | 0.0 | 0.0 | 0.00 | 0.00 | 0.00 | 34 | 1015.0 |
| 20260504214122 | 77 | 203 | 0.0 | 0.0 | 0.00 | 0.00 | 0.00 | 32 | 1014.9 |
| 20260504213619 | 77 | 255 | 0.0 | 0.0 | 0.00 | 0.00 | 0.00 | 33 | 1014.9 |
| 20260504213116 | 77 | 170 | 0.9 | 0.9 | 0.00 | 0.00 | 0.00 | 36 | 1015.0 |
| 20260504212612 | 77 | 343 | 0.0 | 0.0 | 0.00 | 0.00 | 0.00 | 33 | 1014.9 |
| 20260504212109 | 77 | 227 | 0.0 | 0.0 | 0.00 | 0.00 | 0.00 | 33 | 1015.2 |
| 20260504211606 | 77 | 174 | 0.0 | 0.0 | 0.00 | 0.00 | 0.00 | 34 | 1015.0 |
| 20260504211103 | 77 | 189 | 0.0 | 0.0 | 0.00 | 0.00 | 0.00 | 34 | 1015.0 |
| 20260504210600 | 77 | 200 | 0.0 | 0.9 | 0.00 | 0.00 | 0.00 | 33 | 1015.2 |
| 20260504210056 | 77 | 204 | 0.9 | 0.9 | 0.00 | 0.00 | 0.00 | 33 | 1015.0 |
| 20260504205554 | 77 | 216 | 0.9 | 1.7 | 0.00 | 0.00 | 0.00 | 35 | 1014.8 |
| 20260504205052 | 77 | 146 | 0.9 | 0.9 | 0.00 | 0.00 | 0.00 | 32 | 1015.2 |
| 20260504204550 | 77 | 176 | 0.9 | 0.9 | 0.00 | 0.00 | 0.00 | 32 | 1015.5 |
| 20260504204049 | 77 | 207 | 0.9 | 1.7 | 0.00 | 0.00 | 0.00 | 33 | 1015.4 |
| 20260504203546 | 77 | 191 | 1.7 | 1.7 | 0.00 | 0.00 | 0.00 | 35 | 1015.4 |
| 20260504203044 | 77 | 184 | 0.0 | 0.9 | 0.00 | 0.00 | 0.00 | 33 | 1015.3 |
| 20260504202539 | 77 | 213 | 0.0 | 0.9 | 0.00 | 0.00 | 0.00 | 34 | 1015.3 |
| 20260504202036 | 78 | 202 | 0.9 | 0.9 | 0.00 | 0.00 | 0.00 | 32 | 1015.4 |
| 20260504201533 | 77 | 181 | 0.9 | 0.9 | 0.00 | 0.00 | 0.00 | 36 | 1015.6 |
| 20260504201031 | 78 | 250 | 0.0 | 0.9 | 0.00 | 0.00 | 0.00 | 33 | 1015.6 |
| 20260504200527 | 78 | 199 | 0.9 | 0.9 | 0.00 | 0.00 | 0.00 | 35 | 1015.6 |
| 20260504200024 | 78 | 175 | 0.9 | 0.9 | 0.00 | 0.00 | 0.00 | 35 | 1015.9 |
| 20260504195520 | 77 | 190 | 0.0 | 0.0 | 0.00 | 0.00 | 0.00 | 37 | 1015.6 |
| 20260504195017 | 77 | 215 | 0.0 | 0.0 | 0.00 | 0.00 | 0.00 | 34 | 1015.9 |
| 20260504194513 | 77 | 193 | 0.0 | 0.0 | 0.00 | 0.00 | 0.00 | 33 | 1015.9 |
| 20260504194008 | 77 | 218 | 0.9 | 0.9 | 0.00 | 0.00 | 0.00 | 34 | 1015.9 |
| 20260504193506 | 77 | 212 | 0.9 | 0.9 | 0.00 | 0.00 | 0.00 | 34 | 1015.9 |
| 20260504193005 | 77 | 137 | 0.9 | 0.9 | 0.00 | 0.00 | 0.00 | 37 | 1016.1 |
| 20260504192502 | 78 | 259 | 0.0 | 0.0 | 0.00 | 0.00 | 0.00 | 33 | 1015.9 |
| 20260504192000 | 78 | 175 | 0.0 | 0.0 | 0.00 | 0.00 | 0.00 | 35 | 1015.9 |
| 20260504191458 | 78 | 215 | 0.9 | 0.9 | 0.00 | 0.00 | 0.00 | 33 | 1015.9 |
| 20260504190953 | 77 | 220 | 0.0 | 0.9 | 0.00 | 0.00 | 0.00 | 34 | 1016.2 |
| 20260504190449 | 77 | 197 | 0.9 | 0.9 | 0.00 | 0.00 | 0.00 | 34 | 1016.1 |
| 20260504185946 | 77 | 210 | 0.0 | 0.9 | 0.00 | 0.00 | 0.00 | 32 | 1016.3 |
| 20260504185443 | 77 | 212 | 0.0 | 0.9 | 0.00 | 0.00 | 0.00 | 33 | 1016.5 |
| 20260504184939 | 76 | 209 | 0.0 | 0.9 | 0.00 | 0.00 | 0.00 | 34 | 1016.3 |
| 20260504184435 | 75 | 328 | 1.7 | 1.7 | 0.00 | 0.00 | 0.00 | 34 | 1016.8 |
| 20260504183931 | 76 | 280 | 0.9 | 0.9 | 0.00 | 0.00 | 0.00 | 33 | 1016.6 |
| 20260504183428 | 77 | 327 | 1.7 | 1.7 | 0.00 | 0.00 | 0.00 | 33 | 1016.6 |
| 20260504182926 | 76 | 212 | 0.9 | 0.9 | 0.00 | 0.00 | 0.00 | 33 | 1016.4 |
| 20260504182423 | 76 | 318 | 1.7 | 2.6 | 0.00 | 0.00 | 0.00 | 33 | 1016.7 |
| 20260504181920 | 76 | 250 | 0.0 | 0.0 | 0.00 | 0.00 | 0.00 | 36 | 1016.6 |
| 20260504181417 | 76 | 196 | 0.0 | 0.9 | 0.00 | 0.00 | 0.00 | 35 | 1016.8 |
| 20260504180916 | 76 | 210 | 0.0 | 0.0 | 0.00 | 0.00 | 0.00 | 34 | 1016.6 |
| 20260504180414 | 75 | 223 | 0.9 | 0.9 | 0.00 | 0.00 | 0.00 | 36 | 1016.9 |
| 20260504175912 | 75 | 182 | 0.0 | 0.0 | 0.00 | 0.00 | 0.00 | 38 | 1016.9 |
| 20260504175409 | 74 | 323 | 0.0 | 0.0 | 0.00 | 0.00 | 0.00 | 38 | 1016.9 |
| 20260504174907 | 74 | 196 | 0.0 | 0.0 | 0.00 | 0.00 | 0.00 | 42 | 1016.9 |
| 20260504174404 | 73 | 303 | 0.9 | 0.9 | 0.00 | 0.00 | 0.00 | 39 | 1017.2 |
| 20260504173901 | 73 | 330 | 1.7 | 1.7 | 0.00 | 0.00 | 0.00 | 39 | 1016.9 |
| 20260504173357 | 73 | 340 | 0.9 | 1.7 | 0.00 | 0.00 | 0.00 | 40 | 1017.2 |
| 20260504172855 | 72 | 250 | 0.0 | 0.0 | 0.00 | 0.00 | 0.00 | 41 | 1017.3 |
| 20260504172351 | 72 | 311 | 1.7 | 1.7 | 0.00 | 0.00 | 0.00 | 39 | 1017.4 |
| 20260504171847 | 72 | 336 | 2.6 | 2.6 | 0.00 | 0.00 | 0.00 | 40 | 1017.6 |
| 20260504171344 | 73 | 186 | 0.0 | 0.0 | 0.00 | 0.00 | 0.00 | 39 | 1017.7 |
| 20260504170842 | 72 | 200 | 0.9 | 0.9 | 0.00 | 0.00 | 0.00 | 40 | 1017.7 |
| 20260504170338 | 72 | 320 | 1.7 | 2.6 | 0.00 | 0.00 | 0.00 | 40 | 1017.7 |
| 20260504160256 | 69 | 201 | 0.0 | 0.0 | 0.00 | 0.00 | 0.00 | 48 | 1018.6 |